User: anonymous   Login
Location: Unspecified
(0.0000°N, 0.0000°E)
Time: 03:34:55
(UTC+00:00)
Language:

ADEOS II - Orbit

View from above orbital plane
View from above orbital plane
View from above satellite
View from above satellite

Ground track
Ground track

The orbit data is extracted from the following two-line orbital elements,

1 27597U 02056A   19049.46805333  .00000011  00000-0  21705-4 0  9999
2 27597  98.4572   6.0372 0001235  35.5277 324.5987 14.27384981842622
Epoch (UTC): 18 February 2019 11:13:59
Eccentricity: 0.0001235
inclination: 98.4572°
perigee height: 799 km
apogee height: 801 km
right ascension of ascending node: 6.0372°
argument of perigee: 35.5277°
revolutions per day: 14.27384981
mean anomaly at epoch: 324.5987°
orbit number at epoch: 84262

The dashed part of the orbit path shows where the satellite is in the earth's shadow,  

DLR